Wind_Speed
3 3 3 3 3 3 3 2 1 1 1 1 1 1 0 0 0 1 1 1 0 1 1 2 2 2 2 3 3 4 3 4 4 4 4 4 5 5 5 4 4 4 4
3 3 3 3 3 3 3 2 2 1 1 1 1 1 1 1 1 1 1 1 1 1 2 2 3 3 3 3 3 3 3 4 4 4 4 5 5 6 6 6 6 6 6
3 4 4 4 4 4 3 3 3 3 2 3 3 2 2 2 2 2 2 3 2 2 3 3 4 4 4 4 4 4 4 4 4 5 5 6 6 6 6 6 6 6 6
4 5 5 5 5 5 5 4 4 4 3 3 4 3 3 3 3 3 4 4 4 3 3 4 4 4 4 5 5 5 5 5 6 6 6 7 7 7 7 7 7 8 8
4 5 5 5 5 5 5 5 5 4 4 4 4 4 4 4 5 5 5 5 5 5 4 4 5 5 5 6 6 6 6 7 7 7 7 8 8 8 8 8 8 8 8
5 5 5 5 5 6 6 6 6 5 5 5 5 5 5 5 6 6 6 6 6 6 6 6 6 6 6 7 7 7 7 8 8 9 9 9 9 9 9 9 9 10 9
5 5 5 5 5 5 5 5 6 6 6 6 6 6 7 6 6 7 7 7 7 7 7 7 7 7 7 7 8 9 9 10 9 10 10 10 9 9 10 10 10 10 11
6 6 6 6 6 6 6 7 6 7 7 7 7 7 7 7 7 7 8 8 8 9 8 8 9 9 8 8 9 10 10 11 10 10 11 11 11 11 11 11 11 11 11
6 6 6 6 6 7 7 7 7 7 7 7 7 8 8 8 8 8 9 9 10 9 9 9 9 10 10 10 10 10 10 10 10 10 11 11 11 12 12 12 12 11 11
7 6 6 6 6 6 7 7 7 7 7 7 8 8 8 8 9 9 9 10 11 11 10 10 10 10 10 10 11 11 10 11 11 11 11 12 12 12 13 13 13 13 13
6 6 6 6 6 6 7 7 7 7 8 8 8 8 9 9 9 9 10 10 11 10 10 10 10 10 10 11 11 11 11 12 12 12 12 12 13 13 13 14 14 14 14
7 6 6 6 6 7 7 7 7 8 8 8 8 9 9 9 9 9 10 10 10 10 10 11 11 11 12 12 12 12 13 13 13 13 14 14 14 15 15 15 15 15 15
7 6 6 6 6 7 7 7 8 8 8 8 9 9 10 10 10 10 10 11 11 11 12 12 12 13 13 13 13 14 14 14 14 14 14 15 15 16 16 16 16 16 16
6 6 6 6 7 7 7 8 8 8 8 9 9 9 9 10 11 11 11 11 12 12 13 13 14 14 14 14 15 15 15 16 16 16 16 16 17 17 17 18 17 17 16
7 7 7 7 7 8 8 8 9 9 9 9 9 9 10 10 11 11 11 11 12 13 13 14 14 14 15 15 15 15 15 15 16 16 16 16 17 17 18 19 18 18 17
7 8 8 8 8 8 8 9 9 9 9 9 9 10 10 11 11 11 12 12 13 13 14 14 15 15 15 15 15 16 16 15 16 16 16 16 17 17 18 18 18 18 18
7 8 8 8 8 8 9 9 9 10 10 10 10 10 10 10 11 11 11 12 13 14 14 14 15 16 16 16 16 16 16 16 16 16 17 17 17 17 17 17 18 18 18
8 8 8 9 9 9 9 9 10 10 10 10 10 10 10 10 11 11 12 12 13 14 15 15 16 16 16 16 16 16 17 16 16 16 16 16 17 17 16 16 17 18 19
9 9 9 9 9 10 10 10 10 10 10 11 11 11 11 11 12 12 13 13 14 14 15 15 16 16 16 16 16 16 17 16 16 16 16 16 16 16 16 16 17 18 18
10 10 9 10 10 10 10 10 10 11 11 11 11 11 11 12 12 13 13 14 14 15 15 15 16 16 16 16 17 16 16 17 16 16 16 15 15 16 17 17 18 18 18
11 11 11 11 11 11 11 12 12 12 13 13 12 13 13 13 14 14 15 15 15 15 15 16 16 16 17 17 17 17 17 17 17 17 16 16 16 16 17 17 18 18 18
12 12 12 12 11 12 12 12 13 14 14 14 13 13 14 15 15 15 15 16 16 16 16 17 17 17 17 17 17 17 17 17 17 17 17 17 17 17 17 17 18 18 17
12 13 13 13 13 13 13 13 14 14 15 15 15 15 15 16 16 16 16 16 16 16 17 17 17 17 17 17 17 17 17 16 16 17 18 18 18 18 17 18 18 17 17
13 13 14 14 14 15 15 15 15 15 16 16 16 16 16 16 16 17 17 17 16 16 17 17 17 17 17 17 17 17 16 16 16 16 17 18 18 17 17 18 18 18 17
13 14 15 15 16 16 16 16 16 17 17 17 17 17 17 16 17 17 17 17 17 17 17 17 16 16 16 16 16 16 17 17 17 17 17 18 18 19 18 17 17 17 17
15 16 16 17 17 17 17 17 17 17 18 18 17 17 18 17 17 17 17 17 17 17 17 17 16 16 16 16 17 17 17 17 18 17 18 19 19 19 19 18 17 17 17
Wind_Direction
184 189 186 178 171 169 166 165 160 152 152 157 165 190 241 223 21 345 345 6 120 192 212 212 229 248 258 269 267 259 255 246 247 248 252 249 245 247 255 258 255 253 253
201 211 203 195 193 190 185 190 193 213 245 251 249 247 249 256 261 304 311 292 273 257 250 245 247 255 258 269 270 263 261 253 250 255 259 258 256 254 254 258 255 255 256
222 226 218 214 215 211 210 215 225 242 257 262 263 265 266 273 273 266 274 280 279 266 266 270 259 259 265 267 267 265 260 257 255 256 258 259 262 261 258 256 255 257 261
234 230 231 229 229 227 230 235 238 245 260 267 266 268 272 272 275 273 268 269 272 267 266 268 269 266 270 270 271 269 265 266 261 262 261 260 264 265 264 262 260 261 264
244 242 242 241 237 234 237 241 242 249 258 263 264 266 271 270 270 271 264 262 262 261 262 269 273 272 272 270 269 271 273 273 264 265 266 264 264 265 267 269 268 267 268
246 248 249 246 240 239 242 249 249 251 254 261 263 264 269 270 267 266 259 259 258 257 264 272 273 268 273 275 272 273 276 276 270 269 269 268 266 265 265 267 268 268 267
244 241 243 247 244 241 243 250 252 252 254 258 262 265 271 272 270 267 262 258 259 261 266 272 274 272 274 280 280 277 275 273 271 270 268 268 267 266 268 273 269 268 270
247 245 243 244 244 245 246 251 256 259 257 258 263 266 269 269 269 269 267 263 263 267 271 273 273 274 277 280 282 280 279 273 269 268 268 268 268 267 271 273 271 274 273
248 248 247 247 247 248 251 254 257 258 260 260 263 265 267 269 269 269 269 267 267 270 271 270 268 270 275 277 279 279 277 274 272 271 270 270 268 268 269 271 269 272 273
248 247 247 250 253 251 251 256 258 257 262 265 266 267 268 268 267 266 266 268 270 269 271 272 269 272 273 274 274 274 276 272 270 271 272 273 271 271 269 268 268 270 271
249 249 250 254 257 255 255 258 260 259 262 265 267 269 270 267 266 264 265 266 267 271 275 274 271 271 272 273 275 276 276 272 269 272 272 272 270 270 270 269 268 270 270
251 250 253 254 258 258 258 259 259 260 263 267 269 271 271 268 266 266 267 267 270 272 274 276 274 272 271 274 275 274 273 273 275 275 272 270 270 269 270 270 269 271 270
254 252 254 257 259 261 261 262 261 262 268 270 272 273 273 271 270 271 269 269 271 271 274 276 276 274 274 275 276 275 273 272 272 274 273 271 270 270 271 271 269 269 269
254 255 258 261 262 263 265 265 265 266 269 272 274 275 275 274 275 275 272 271 272 272 273 275 277 276 275 275 276 277 277 276 275 274 274 271 271 271 272 271 268 268 269
258 256 258 263 263 264 267 268 268 267 269 271 272 275 278 280 278 275 273 272 273 272 272 273 274 276 278 277 277 276 276 276 275 275 275 273 271 271 271 271 271 268 268
259 259 263 267 266 267 268 269 269 270 271 272 273 275 277 280 277 275 274 276 277 275 272 273 274 275 277 278 278 276 276 276 276 276 275 274 272 271 270 269 269 268 267
260 263 263 269 272 271 272 270 271 272 273 274 275 277 280 282 281 279 280 280 279 276 275 275 275 276 277 279 279 277 277 277 277 278 278 277 274 272 271 269 268 268 269
263 265 269 270 274 273 272 272 272 271 271 274 274 277 280 283 283 283 286 285 283 280 279 279 279 278 278 278 278 277 277 276 277 279 280 279 276 274 274 270 268 267 268
264 266 272 274 275 273 273 274 273 273 274 275 276 277 278 281 284 285 286 285 284 284 283 281 281 280 278 278 277 277 276 276 276 278 279 277 275 276 275 272 271 271 270
266 268 272 274 276 274 273 273 273 273 274 275 276 277 279 282 285 286 287 286 286 286 285 282 281 282 281 279 278 278 277 276 277 278 278 277 275 273 273 272 272 273 271
265 268 272 272 274 275 274 275 276 276 276 277 277 278 279 282 284 283 285 286 285 284 284 283 281 282 281 281 280 280 281 279 277 277 277 278 275 275 274 273 272 272 272
265 268 269 269 269 272 274 276 277 277 278 278 278 278 279 282 282 282 284 285 285 284 284 284 282 282 282 281 280 281 282 280 278 277 276 276 274 274 273 273 270 270 270
267 268 269 270 267 269 273 276 277 277 277 277 277 278 280 282 283 283 283 285 285 285 285 286 284 284 283 281 280 281 281 280 278 276 276 275 274 273 272 272 270 267 266
270 268 266 269 269 269 272 274 274 274 275 276 276 277 280 282 283 284 284 284 284 285 285 287 286 285 283 281 281 280 281 280 279 277 276 275 273 272 271 270 269 267 265
271 272 268 269 271 270 270 272 273 275 276 276 277 277 279 281 282 284 285 284 284 285 285 286 288 287 284 282 282 282 283 282 282 281 279 276 274 272 271 269 267 265 264
273 273 273 272 272 273 273 272 273 274 275 275 275 275 277 278 279 283 283 284 284 286 286 285 286 288 287 284 284 283 284 284 284 284 281 279 276 272 270 269 267 265 264
Height
5864 5864 5864 5865 5865 5866 5866 5866 5867 5867 5867 5867 5868 5868 5869 5869 5869 5869 5869 5869 5869 5870 5871 5871 5872 5872 5873 5873 5873 5874 5874 5875 5875 5875 5876 5876 5876 5876 5877 5877 5877 5878 5878
5863 5864 5864 5865 5865 5865 5866 5866 5866 5867 5867 5867 5868 5868 5868 5869 5869 5869 5869 5869 5870 5870 5871 5871 5872 5872 5872 5873 5873 5873 5874 5874 5874 5875 5875 5875 5875 5876 5876 5876 5877 5877 5877
5863 5863 5864 5864 5864 5865 5865 5866 5866 5866 5866 5867 5867 5867 5868 5868 5868 5869 5869 5869 5870 5870 5871 5871 5871 5872 5872 5872 5872 5873 5873 5873 5873 5874 5874 5874 5875 5875 5875 5875 5876 5876 5876
5862 5863 5863 5863 5864 5864 5864 5865 5865 5865 5866 5866 5866 5867 5867 5867 5868 5868 5868 5869 5869 5869 5870 5870 5871 5871 5871 5871 5872 5872 5872 5872 5873 5873 5873 5873 5874 5874 5874 5874 5874 5875 5875
5861 5862 5862 5862 5863 5863 5863 5864 5864 5865 5865 5865 5865 5866 5866 5866 5867 5867 5868 5868 5868 5868 5869 5869 5870 5870 5870 5870 5870 5871 5871 5871 5871 5872 5872 5872 5872 5872 5872 5873 5873 5873 5873
5860 5861 5861 5861 5861 5862 5862 5863 5863 5863 5864 5864 5864 5864 5865 5865 5866 5866 5866 5867 5867 5867 5868 5868 5868 5868 5868 5869 5869 5869 5869 5869 5870 5870 5870 5870 5870 5871 5871 5871 5871 5871 5871
5859 5859 5860 5860 5860 5860 5861 5861 5861 5862 5862 5863 5863 5863 5863 5864 5864 5864 5865 5865 5866 5866 5866 5867 5867 5867 5867 5867 5867 5867 5867 5867 5868 5868 5868 5869 5869 5869 5869 5869 5869 5869 5870
5858 5858 5858 5859 5859 5859 5859 5860 5860 5860 5861 5861 5861 5862 5862 5862 5862 5863 5863 5864 5864 5864 5865 5865 5865 5865 5865 5865 5865 5865 5865 5865 5866 5866 5866 5866 5867 5867 5867 5867 5867 5867 5867
5857 5857 5857 5857 5857 5858 5858 5858 5858 5859 5859 5859 5860 5860 5860 5860 5860 5861 5861 5862 5862 5862 5863 5863 5863 5863 5863 5863 5863 5863 5862 5862 5863 5863 5864 5864 5864 5865 5865 5865 5865 5865 5865
5855 5855 5855 5856 5856 5856 5856 5856 5857 5857 5857 5857 5858 5858 5858 5858 5858 5859 5859 5859 5860 5860 5860 5860 5861 5861 5861 5861 5861 5860 5860 5860 5860 5861 5861 5862 5862 5862 5862 5862 5862 5862 5863
5854 5854 5854 5854 5854 5854 5855 5855 5855 5855 5855 5855 5856 5856 5856 5856 5856 5857 5857 5857 5857 5857 5857 5858 5858 5858 5858 5858 5858 5858 5858 5858 5858 5858 5858 5859 5859 5859 5859 5859 5859 5860 5860
5852 5852 5853 5853 5853 5853 5853 5853 5853 5853 5854 5854 5854 5854 5854 5854 5854 5854 5855 5855 5855 5855 5855 5855 5855 5855 5855 5856 5856 5856 5855 5855 5855 5855 5855 5856 5856 5856 5856 5856 5856 5857 5857
5851 5851 5851 5851 5851 5851 5851 5851 5852 5852 5852 5852 5852 5852 5852 5852 5852 5852 5852 5852 5852 5852 5852 5852 5852 5852 5852 5853 5853 5853 5853 5852 5852 5852 5852 5852 5852 5853 5853 5853 5853 5853 5853
5849 5849 5849 5850 5850 5850 5850 5850 5850 5849 5850 5850 5849 5849 5849 5849 5849 5849 5849 5849 5849 5850 5850 5849 5849 5849 5849 5849 5849 5849 5849 5849 5849 5849 5849 5849 5849 5849 5849 5848 5849 5849 5849
5848 5848 5848 5848 5848 5848 5848 5847 5847 5847 5847 5847 5847 5847 5847 5846 5846 5846 5846 5846 5846 5846 5846 5846 5846 5846 5846 5846 5845 5845 5845 5845 5845 5845 5845 5845 5845 5845 5845 5845 5845 5845 5845
5846 5846 5846 5846 5846 5846 5845 5845 5845 5845 5845 5845 5845 5844 5844 5844 5844 5843 5843 5843 5843 5843 5843 5842 5842 5842 5842 5842 5842 5842 5842 5841 5841 5841 5841 5841 5841 5841 5841 5840 5841 5841 5841
5844 5844 5844 5844 5844 5844 5843 5843 5843 5842 5842 5842 5842 5842 5841 5841 5841 5841 5840 5840 5840 5839 5839 5839 5838 5838 5838 5838 5838 5838 5837 5837 5837 5837 5837 5837 5837 5837 5837 5836 5837 5837 5837
5842 5842 5842 5842 5842 5841 5841 5841 5840 5840 5840 5840 5840 5839 5839 5839 5838 5838 5837 5837 5836 5836 5835 5835 5835 5834 5834 5834 5833 5833 5833 5833 5833 5833 5833 5832 5832 5832 5832 5832 5832 5832 5832
5840 5840 5840 5839 5839 5839 5838 5838 5838 5838 5837 5837 5837 5836 5836 5836 5835 5835 5834 5834 5833 5832 5832 5831 5831 5830 5830 5829 5829 5829 5829 5829 5829 5828 5828 5828 5828 5828 5828 5828 5828 5828 5827
5837 5837 5837 5837 5836 5836 5836 5835 5835 5835 5835 5834 5834 5834 5833 5833 5832 5832 5831 5830 5830 5829 5828 5827 5827 5826 5825 5825 5825 5824 5824 5824 5824 5824 5824 5824 5824 5824 5824 5824 5823 5823 5823
5835 5834 5834 5834 5834 5833 5833 5833 5832 5832 5831 5831 5831 5830 5830 5829 5829 5828 5828 5827 5826 5825 5824 5824 5823 5822 5821 5821 5820 5820 5820 5819 5819 5819 5819 5819 5820 5819 5819 5819 5819 5818 5818
5832 5832 5831 5831 5831 5830 5830 5829 5829 5829 5828 5828 5827 5827 5826 5826 5825 5825 5824 5823 5822 5821 5821 5819 5819 5818 5817 5816 5816 5815 5815 5815 5815 5815 5815 5815 5815 5815 5815 5814 5814 5814 5814
5829 5829 5828 5828 5827 5827 5826 5826 5825 5825 5825 5824 5824 5823 5823 5822 5822 5821 5820 5819 5818 5817 5816 5815 5814 5813 5813 5812 5811 5811 5811 5810 5810 5810 5810 5810 5810 5810 5810 5809 5809 5809 5809
5826 5825 5825 5824 5824 5823 5823 5822 5822 5821 5821 5820 5820 5819 5819 5818 5817 5817 5816 5815 5814 5813 5812 5811 5810 5809 5808 5807 5807 5806 5806 5805 5805 5805 5805 5805 5805 5805 5804 5804 5804 5804 5804
5822 5822 5821 5820 5820 5819 5819 5818 5818 5817 5817 5816 5816 5816 5815 5814 5813 5812 5811 5810 5810 5809 5808 5807 5806 5805 5804 5803 5802 5802 5801 5801 5800 5800 5800 5800 5800 5799 5799 5799 5799 5799 5800
5818 5817 5817 5816 5816 5815 5814 5813 5813 5813 5812 5812 5811 5811 5811 5810 5809 5808 5807 5806 5805 5805 5804 5803 5802 5800 5799 5799 5798 5797 5797 5796 5796 5795 5795 5794 5794 5794 5794 5794 5794 5795 5795